Theta_e
343 341 339 341 342 345 345 344 344 344 344 342 341 341 341 340 341 338 337 340 340 341 343 343 332 345 346 344 343 341 342 342 341 339 331 336 339 340 335 326 326 331 331
343 343 342 343 343 344 345 343 343 344 344 343 342 341 340 341 342 342 340 341 344 344 344 340 339 344 346 342 341 339 342 339 342 341 331 336 340 339 334 324 330 332 330
341 340 341 344 342 343 343 343 343 342 345 342 342 342 342 341 341 341 343 344 345 345 343 332 339 345 346 341 340 339 341 341 342 340 331 334 337 339 336 325 330 333 333
342 344 343 343 342 344 343 344 343 345 343 341 342 343 342 342 342 340 340 341 343 344 335 333 338 346 346 338 338 342 343 343 338 333 332 334 334 336 338 330 322 327 329
343 343 341 340 342 344 343 344 344 345 343 342 342 343 343 343 343 344 343 341 340 338 341 335 340 343 344 341 341 343 344 342 335 337 336 338 338 334 337 336 324 321 324
344 342 341 341 341 343 343 345 346 344 343 343 344 344 344 344 344 343 342 337 335 341 340 341 341 342 343 344 342 344 344 342 341 342 341 342 343 340 334 339 332 319 318
341 341 338 333 335 343 343 343 345 343 345 345 343 344 344 344 342 337 335 338 340 342 341 342 344 342 343 345 343 345 344 342 340 340 342 343 343 343 342 333 338 331 317
342 340 340 333 338 341 342 343 342 340 340 343 341 338 337 340 338 341 339 341 340 339 343 342 342 342 343 341 343 344 343 343 341 341 341 342 342 343 343 343 334 338 331
343 339 336 337 340 337 340 339 341 340 341 340 341 338 339 340 336 342 344 342 341 343 342 342 343 341 344 344 342 340 343 344 343 342 342 342 342 342 342 344 342 334 337
343 344 334 338 338 341 342 339 338 339 339 344 339 338 340 336 341 341 342 342 344 341 343 344 345 343 342 345 340 342 342 344 343 343 342 342 343 343 342 342 344 342 334
344 345 345 344 341 340 342 344 344 340 341 340 343 343 343 342 342 343 341 341 340 345 344 344 345 344 343 345 339 340 342 342 343 343 343 342 343 343 343 341 343 344 343
345 348 347 349 347 341 341 342 342 344 345 344 340 339 344 344 344 345 347 344 343 341 345 344 345 342 344 346 343 340 341 343 343 341 341 339 338 336 338 339 340 344 344
344 345 345 344 346 342 342 340 341 344 345 342 346 347 342 340 344 347 348 347 345 344 345 344 345 345 345 344 346 342 343 344 341 343 339 337 338 339 340 340 339 342 345
346 346 346 343 344 346 343 346 345 345 344 347 347 346 346 345 348 347 347 348 347 344 344 345 346 344 345 345 344 344 345 345 342 345 339 339 339 340 341 341 339 339 342
346 348 347 346 345 346 346 347 348 347 346 345 345 345 346 344 346 349 349 346 346 347 346 344 346 345 344 346 346 346 345 344 341 340 338 340 341 342 342 344 342 338 341
346 346 344 345 346 347 345 346 347 346 346 346 343 345 346 346 346 347 347 348 345 345 347 346 347 347 347 346 346 345 345 344 342 342 339 339 339 341 343 343 344 341 341
346 346 346 344 347 341 343 346 344 347 347 345 345 345 346 347 346 345 346 346 346 345 345 346 346 345 344 344 344 345 345 346 343 344 339 338 337 337 338 343 343 344 345
344 345 346 345 342 344 344 343 344 346 344 344 346 347 346 347 346 347 347 348 348 347 347 345 346 346 346 344 343 346 346 345 345 344 342 342 338 336 334 334 337 341 344
345 346 348 347 344 346 344 346 344 346 345 343 342 342 344 346 345 347 346 344 346 345 346 347 343 345 344 342 344 343 344 346 345 342 342 342 339 333 331 329 327 326 328
343 344 345 344 343 345 347 346 345 343 343 344 343 345 341 341 340 344 345 344 343 344 344 345 345 343 344 344 343 342 343 345 345 342 341 343 341 336 336 336 330 324 322
342 345 344 346 349 347 345 343 344 343 344 344 343 344 345 346 345 341 339 341 345 344 344 343 344 344 344 342 342 343 343 344 345 342 342 342 341 341 339 337 334 330 325
343 346 346 347 348 346 344 343 344 344 344 345 346 347 346 344 345 340 340 341 344 346 343 345 345 344 343 342 342 342 343 344 343 343 343 342 343 340 339 336 335 333 324
349 350 350 347 347 347 345 344 345 344 344 344 345 345 346 346 342 342 341 342 342 342 342 341 341 342 344 343 343 343 342 341 343 341 342 342 343 340 338 337 333 330 324
350 346 346 348 347 347 345 346 345 344 345 345 345 345 346 344 344 343 342 343 343 342 340 341 341 342 343 344 343 344 343 342 342 341 341 341 340 338 336 334 329 329 324
349 348 348 347 346 345 344 344 345 345 345 346 346 346 345 344 343 343 343 343 341 340 340 341 342 341 340 340 340 338 339 337 337 338 339 340 339 338 335 329 325 324 327
346 346 345 345 345 345 345 345 344 344 343 343 342 342 342 343 342 343 342 341 340 340 340 340 339 337 335 335 336 336 335 335 333 334 335 335 336 335 330 326 325 324 323
Wind_Speed
7 6 8 9 7 7 5 9 6 6 6 8 6 1 3 3 6 7 4 3 5 9 12 19 42 12 15 15 11 9 8 9 10 11 10 7 7 8 9 7 3 0 2
5 6 8 7 4 5 7 10 7 4 3 4 5 5 4 2 1 5 5 8 10 12 15 16 20 16 12 12 9 10 8 9 11 11 11 9 9 10 11 9 6 4 4
5 5 5 4 4 6 6 6 4 2 5 1 3 4 4 4 5 7 10 13 14 14 20 22 18 10 5 9 10 8 9 11 11 11 10 10 11 12 12 10 8 7 4
5 4 4 4 4 7 5 2 3 4 1 5 3 1 4 7 7 9 14 15 18 18 19 18 10 4 6 9 9 8 9 12 11 10 10 12 14 13 14 12 9 7 6
7 6 7 9 7 8 5 4 4 4 2 5 3 4 5 8 12 14 14 13 16 11 18 15 8 5 4 7 8 7 10 12 12 11 11 13 15 13 13 13 11 9 7
10 10 10 11 10 8 5 4 4 2 2 2 4 7 9 10 11 13 14 12 13 5 7 13 6 5 5 6 5 7 9 11 11 11 11 13 15 15 13 13 12 10 9
8 8 4 9 12 10 8 7 6 4 2 2 3 6 8 11 13 11 6 15 14 3 6 5 8 7 7 5 4 5 7 7 7 9 10 11 13 15 16 14 12 11 8
4 7 5 7 13 12 11 11 9 10 4 3 1 2 4 6 3 5 6 10 12 2 4 7 10 8 10 4 3 5 6 6 6 7 8 9 11 12 13 14 13 12 9
6 2 7 11 9 11 8 11 7 5 1 2 3 4 3 1 3 6 9 12 7 4 7 7 7 6 7 6 8 6 6 6 6 5 6 8 8 9 9 9 10 10 9
8 7 6 8 8 7 5 4 7 3 2 2 4 4 4 4 5 4 8 10 10 4 6 6 4 5 7 6 7 5 5 6 7 6 6 8 8 9 8 7 7 7 7
9 8 7 5 4 6 5 3 3 4 4 4 1 2 3 6 7 7 7 7 7 7 4 4 7 1 5 2 6 6 5 5 6 7 8 10 9 9 9 7 4 4 5
11 9 8 6 4 7 7 6 5 4 5 5 3 3 4 3 5 8 13 8 7 6 6 5 2 3 5 4 6 8 4 6 8 8 9 11 10 10 8 7 4 2 1
12 10 8 7 5 4 4 5 7 8 6 4 3 3 4 4 4 6 8 7 8 7 6 5 3 3 4 5 6 7 4 8 10 8 9 9 8 7 6 4 5 5 3
13 12 12 10 9 8 8 7 7 7 8 7 5 4 4 5 7 7 6 8 9 8 7 6 6 6 5 5 6 6 5 9 10 8 9 8 7 6 5 4 4 5 5
15 14 13 14 15 12 11 10 10 9 10 10 10 8 7 8 6 8 8 9 8 10 12 6 6 6 6 7 6 7 8 9 7 7 9 7 6 5 5 4 3 4 6
15 13 13 15 16 15 13 12 12 13 13 11 11 11 10 12 11 11 11 11 11 11 10 8 7 6 8 9 9 8 9 7 5 9 7 5 5 5 5 4 1 4 6
17 16 15 12 17 18 18 15 13 11 12 12 13 14 14 14 14 12 12 11 11 13 14 12 11 11 13 13 12 12 12 9 5 6 6 7 5 4 3 3 2 2 5
20 19 17 17 16 15 16 15 12 11 12 12 10 12 12 12 12 13 12 13 13 13 14 14 14 13 13 13 14 15 14 11 9 7 6 7 8 4 3 2 2 4 6
23 21 19 19 16 15 14 11 11 12 12 12 11 12 10 10 12 14 14 14 14 14 14 15 15 14 14 14 16 14 15 14 13 11 10 6 6 3 3 4 4 4 5
27 22 21 18 17 15 13 12 13 13 14 13 13 11 10 10 11 11 14 16 15 15 14 14 14 13 13 14 14 14 14 14 13 12 10 10 7 6 6 5 5 5 6
28 24 21 18 15 15 14 13 13 14 14 15 15 14 14 16 14 14 15 16 16 17 17 16 16 15 15 15 15 14 16 17 15 16 16 13 11 10 9 8 7 6 7
27 24 20 17 16 16 15 15 16 17 18 17 19 19 19 19 17 16 17 17 16 15 15 17 17 17 16 17 16 13 13 14 14 13 12 15 16 13 11 11 10 9 7
26 27 24 20 20 20 20 20 18 20 21 22 21 19 19 20 18 19 17 17 16 16 16 16 16 17 18 18 17 17 16 16 16 17 15 16 15 16 15 15 13 11 9
26 24 25 24 24 24 22 22 22 21 20 21 21 22 22 21 21 20 18 17 16 17 17 17 16 15 15 16 16 17 16 16 15 13 13 15 15 16 17 17 16 14 13
30 29 30 27 23 23 26 25 22 21 20 17 18 20 20 18 17 16 15 14 15 17 18 15 13 12 11 11 11 10 10 10 11 11 12 14 17 18 20 20 19 18 17
29 28 26 23 22 22 21 15 16 18 16 15 18 17 13 12 14 16 12 11 10 11 10 10 10 9 8 8 7 6 6 8 8 8 8 9 14 15 14 19 21 23 13
Wind_Direction
135 150 150 142 128 115 107 140 121 102 57 67 53 334 333 21 28 41 53 359 314 300 302 326 315 329 328 333 338 331 342 356 354 357 353 353 11 7 10 359 29 73 197
155 160 160 147 142 128 125 137 135 113 67 68 56 56 42 120 264 329 304 317 332 310 323 320 320 325 327 345 351 337 347 359 358 359 357 3 19 15 18 7 33 66 149
186 199 180 152 162 142 132 137 159 71 343 251 44 29 348 343 312 305 316 313 316 316 324 320 332 320 358 8 13 357 1 1 2 4 5 18 24 18 26 25 34 53 66
210 188 198 198 201 186 186 221 234 275 331 163 238 327 331 335 328 307 298 301 308 311 344 334 336 1 28 36 38 18 12 11 13 18 19 31 31 24 20 33 44 47 44
212 214 212 222 212 211 238 254 229 221 213 195 193 233 275 294 290 289 296 308 319 316 330 334 13 358 32 47 40 16 13 19 28 34 35 34 34 32 32 30 36 53 57
217 229 238 208 217 234 244 238 238 211 186 200 237 256 267 265 277 298 312 341 332 321 353 2 360 350 3 48 32 10 11 22 29 32 36 36 33 32 34 37 41 43 49
225 232 192 254 224 223 227 245 230 208 197 226 228 270 271 266 300 312 326 332 348 87 35 37 13 11 5 23 1 359 7 15 10 23 30 29 33 32 33 37 44 50 61
230 228 246 225 192 200 224 226 233 229 261 288 336 307 281 249 323 294 347 24 6 67 39 36 11 18 11 22 333 343 343 359 351 351 11 21 22 28 33 34 36 39 50
212 154 185 162 163 193 202 222 234 188 183 274 326 316 314 50 317 28 21 33 28 36 18 34 23 10 14 5 343 302 330 347 335 339 355 2 7 12 20 34 41 46 46
172 165 153 155 167 183 184 205 211 237 260 17 58 64 43 3 25 323 21 29 29 14 346 359 340 17 6 354 334 306 324 341 345 338 348 343 344 346 353 5 27 39 50
192 191 172 162 183 195 207 208 221 260 286 299 349 319 20 35 32 351 341 3 18 8 323 333 293 338 355 4 9 328 311 321 327 326 330 326 322 321 325 327 345 25 45
213 206 209 205 226 210 224 243 262 278 290 300 326 276 275 322 345 325 328 337 338 337 296 300 229 285 334 352 351 349 333 326 325 326 325 321 320 319 319 309 288 300 13
219 222 223 228 241 238 237 253 263 267 276 286 277 293 262 270 293 287 319 324 333 317 308 295 237 277 297 343 323 339 315 325 327 332 336 329 324 324 326 309 272 250 259
226 230 240 240 257 277 257 246 253 259 248 246 256 291 264 275 273 263 296 328 321 309 307 288 268 269 276 303 303 323 307 319 322 330 337 338 336 344 349 321 248 237 251
226 239 239 251 254 261 259 257 251 253 261 263 258 272 277 270 254 253 279 298 306 313 310 288 267 262 274 293 294 300 312 321 324 348 352 351 347 347 353 352 235 222 221
231 236 241 252 249 253 262 266 269 263 266 270 269 272 280 263 266 275 276 284 295 288 292 302 276 274 276 292 298 288 306 310 293 345 354 359 10 11 7 15 236 222 236
233 239 239 242 240 266 252 264 267 265 271 274 275 269 272 271 276 280 278 282 293 285 278 284 276 279 286 290 289 283 288 287 289 335 346 347 345 2 11 359 338 284 267
235 233 246 245 255 251 257 259 260 260 273 277 276 275 273 270 274 277 278 285 285 281 280 280 275 274 277 277 285 280 282 273 290 295 310 326 330 330 2 7 336 300 284
234 235 236 243 248 251 250 265 264 259 268 275 276 279 277 278 275 271 276 279 287 283 282 283 279 275 268 275 284 289 282 268 279 277 285 300 333 329 341 347 345 330 309
231 232 237 247 246 252 263 272 274 272 266 269 273 278 276 278 294 284 278 280 283 278 280 284 284 274 270 274 274 277 280 281 283 267 293 270 281 282 302 317 328 329 323
234 234 239 240 247 263 265 265 266 268 270 271 265 270 272 275 289 297 293 288 277 278 277 271 273 271 270 274 278 278 279 275 272 268 291 257 265 264 277 292 307 313 315
225 226 232 237 247 254 259 256 261 267 272 273 268 266 264 266 280 291 288 288 283 281 280 277 277 275 272 277 278 275 276 270 264 283 289 271 265 257 265 272 279 285 293
225 235 236 241 246 248 253 257 268 273 270 276 272 269 265 272 281 291 284 272 277 280 285 284 282 279 276 271 268 268 273 270 268 278 279 277 273 260 262 263 266 270 275
229 238 235 236 241 249 253 260 266 270 267 271 270 269 266 267 277 282 275 270 275 280 282 281 279 281 281 275 271 267 266 266 267 270 271 271 275 267 262 258 255 254 248
229 231 233 239 249 253 262 265 263 261 263 266 266 266 269 271 272 268 266 273 281 287 287 283 282 282 278 275 268 259 257 270 273 281 284 280 274 270 256 250 246 247 245
231 235 240 244 254 260 264 269 265 256 256 261 265 268 262 267 272 270 265 274 279 286 283 272 258 247 245 251 260 263 280 298 296 298 290 280 282 287 275 269 271 269 264